Location: Chinna Viriv?da
(16.5281°N, 81.0493°E)
Time: 14:49:38
(UTC+00:00)

BlueWalker 3 - Pass Details

Date: 14 April 2026
Orbit: 448 x 458 km, 53.2° (Epoch: 10 May)

Event Time Altitude Azimuth Distance (km) Brightness Sun altitude
Rises 13:57:05 0° 332° (NNW) 2,463 6.1 -16.3°
Reaches altitude 10° 13:59:17 10° 339° (NNW) 1,590 5.0 -16.8°
Maximum altitude 14:02:43 44° 53° (NE) 639 2.1 -17.6°
Enters shadow 14:03:06 42° 72° (ENE) 658 2.1 -17.6°
